Location: Newark
(34.1333°N, 7.9667°W)
Time: 16:41:26
(UTC+00:00)

Transit 2A - Pass Details

Date: 17 June 2021
Orbit: 598 x 960 km, 66.7° (Epoch: 23 July)

Event Time Altitude Azimuth Distance (km) Brightness Sun altitude
Rises 17:01:37 0° 205° (SSW) 2,905 9.2 31.2°
Reaches altitude 10° 17:03:54 10° 205° (SSW) 1,971 8.4 30.7°
Maximum altitude 17:08:18 89° 289° (WNW) 605 6.1 29.8°
Drops below altitude 10° 17:12:37 10° 26° (NNE) 1,942 8.0 28.9°
Sets 17:14:52 0° 27° (NNE) 2,858 8.8 28.5°
